Погода в Ныде

Погода в Ныде : погода сейчас, прогноз погоды и архив. Всё, что Вы хотите узнать о погоде в Ныде!

Хотите узнать прогноз погоды в Ныде? Тогда Вам сюда: Погода в Ныде

Поиск расширенной информации на нашем сайте:

Другие новости

Новости СМИ2

Главная страница сайта

Новости сайта

03.07.2017

Напоминаем, что на нашем специализированном сайте Метеоцентр.Азия вы можете получить высокодетализированные автоматические прогнозы погоды по пунктам России, СНГ и мира в авиационном формате (включающие направление и скорость ветра, видимость, явления погоды, количество и форму облачности, нижнюю и верхнюю границу облачности).


Погода в Ныде - сегодня

Время (UTC), дата Ветер
(°,м/с) 
Видим.   Явления Облачность Т
(°С)
Тd
(°С)
f(%) Тe
(°С)
Pmin
(гПа)
dP
(гПа)
Po
(мм)
O2
(г/м3)
Тmin Tmax R s Состояние
почвы
00 17.05.18 020 (С) 10 км    10/10 300 м 
[Sc]
-11.3 -14 80 -16  1014.7  -0.2  760  321           
03 17.05.18 340 (С) 10 км    9/9 300 м 
[Sc]
-11.2 -14.7 75 -15      -11.6      112  неравномерный
сухой снег
100% 
06 17.05.18 320 (СЗ) 4000 м  слаб. ливневой снег  9/9 300 м кучево-дожд. 
[Cb cap]
-9.9 -13.6 74 -14  1014.4  0.3  760  319           
09 17.05.18 290 (З) 20000 м  {ливн. осадки}  8/5 300 м кучево-дожд., средняя 
[Cb cap|Ac trans]
-8.7 -13.1 70 -12  1014.6  0.2  760  318           
12 17.05.18 270 (З) 20000 м  {ливн. осадки}  9/9 300 м кучево-дожд. 
[Cb cap]
-8 -10.9 80 -12  1015.1  0.5  761  317           
18 17.05.18 310 (СЗ) 10 км    9/9 300 м 
[Sc]
-10.6 -12.8 84 -15  1015.1  0.2  761  320           
03 18.05.18 350 (С) 10 км    10/10 300 м 
[Sc]
-5 -7.3 84 -9  1014.9  761  313  -13.6    0.2  110  неравномерный
сухой снег
100% 
06 18.05.18 340 (С) 10 км    10/10 300 м 
[Sc]
-5.3 -7.6 84 -10  1016.6  1.7  762  314           
09 18.05.18 320 (СЗ) 10 км    9/8 300 м средняя 
[Sc|Ac trans]
-6.6 -9.3 81 -11  1019.5  2.9  764  316           
12 18.05.18 330 (СЗ) 10 км    9/8 300 м средняя 
[Sc|Ac trans]
-5.4 -8 82 -10  1020.7  2.1  765  315           
18 18.05.18 350 (С) 10 км    10/10 300 м 
[Sc]
-6.5 -8.2 88 -12  1021.8  0.8  766  317           
21 18.05.18 340 (С) 10 км    10/10 300 м 
[Sc]
-7.3 -8.9 88 -12  1022.2  0.4  766  318           
00 19.05.18 310 (СЗ) 10 км    10/10 300 м 
[Sc]
-7.8 -9.3 89 -11  1022.6  0.4  766  319           
03 19.05.18 270 (З) 10 км    10/10 300 м 
[Sc]
-7.5 -9.2 88 -10  1022.6  766  318  -8.2      110  неравномерный
сухой снег
100% 
06 19.05.18 220 (ЮЗ) 10 км    10/10 300 м 
[Sc]
-5.8 -8.4 82 -8  1021.5  -1.1  765  316           
09 19.05.18 160 (Ю) 10 км    8/6 600 м верхняя 
[Sc|Ci fib]
-4.2 -7.2 80 -6  1020.2  -1.3  764  314           
12 19.05.18 130 (ЮВ) 20000 м    6/4 600 м средняя, верхняя 
[Ac trans|Ci fib]
-1.3 -4.8 77 -5  1018  -2.2  763  309           
03 20.05.18 170 (Ю) 8-10{12}  4000 м  слаб. дождь  10/10 300 м 
[Sc]
+1.5 -1.9 78 -2  1004.6  -2.2  753  302  -3    0.0  110  неравномерный
мокрый или
старый снег
100% 
09 20.05.18 190 (Ю) 10 км  {снег}  10/10 300 м 
[Sc]
+2.9 -0.6 78 +1  1001.8  -1.1  751  299           
12 20.05.18 220 (ЮЗ) 4000 м  слаб. морось{снег}  10/10 300 м 
[St]
+1.7 +0.6 92 1002  0.2  751  301           
15 20.05.18 330 (СЗ) 10 км  {морось}  9/9 300 м 
[Sc]
+0.6 -0.5 92 -2  1002.3  0.3  751  302    +3.1  0.6     
03 21.05.18 350 (С) 9-12{13}  4000 м  слаб. снег  10/10 300 м 
[Sc]
-6 -7.4 90 -12  1010.5  2.5  757  313  -6.3    0.4  108  неравномерный
сухой снег
100% 
09 21.05.18 310 (СЗ) 6{10}  20000 м    8/8 600 м 
[Sc]
-3.1 -5.3 85 -7  1014  1.4  760  310           
12 21.05.18 270 (З) 5{10}  20000 м    8/4 600 м средняя 
[Sc|Ac trans]
-1.2 -3.5 84 -4  1013.8  -0.2  760  308           
18 21.05.18 220 (ЮЗ) 10 км    8/6 300 м кучево-дожд., средняя 
[Cb cap|Ac trans]
-1.8 -4 85 -6  1008.6  -3.7  756  307           
Время (UTC), дата Ветер
(°,м/с) 
Видим.   Явления Облачность Т
(°С)
Тd
(°С)
f(%) Тe
(°С)
Pmin
(гПа)
dP
(гПа)
Po
(мм)
O2
(г/м3)
Тmin Tmax R s Состояние
почвы

Для получения пояснительной информации подведите курсор к названию столбца.

ПОГОДА в Ныде - архив

Всё, что Вы хотите узнать о погоде в Ныде - удобно и подробно!

Выберите нужную дату (начиная с 1 января 2015* года) и нажмите кнопку "Найти".
Будут отображены архивные сводки погоды по пункту Ныда, начиная с указанной даты.


Отображать данные в формате CSV (для использования в таблицах Excel)


Внимание! Наш архив погоды предназначен исключительно для личного некоммерческого использования в познавательных целях. Если Вам необходимы официальные справки о состоянии погоды (для производственных, юридических, коммерческих и т.п. целей), обращайтесь в органы Росгидромета.

*Примечание: данная дата относится к архиву по метеостанциям СССР (Россия, СНГ, Балтия).
Архив по метеостанциям Зарубежной Европы и Азии (кроме Китая) хранится 10 дней, по другим регионам земного шара (Китай, Африка, Америка, Австралия, Океания) - 1 день.

Ныда - район местоположения метеостанции


Название, широта, долгота, высота метеостанции:
Ныда 66.7°ш. 72.9°д. 10 м над ур. моря [Российская Федерация]

Дополнительная информация

В oтличие oт бoльшинства пoгoдных сайтoв мы публикуем пoдрoбную метеoинфoрмацию в детальнoм прoфессиoнальнoм фoрмате.

Характеристики температуры и влажнoсти вoздуха измеряются на высoте 2 м в тени вдали oт зданий и деревьев.
Скoрoсть ветра измеряется на высoте 10 м (на урoвне рoста челoвека скoрoсть ветра ниже в 1.5-2 раза). Если метеoстанция нахoдится в гoрoде или в лесу, тo скoрoсть ветра занижена на 2-4 м/с пo сравнению с oткрытым местoм. Скoрoсть ветра над акватoриями крупных рек и oзёр, а также на вершинах хoлмoв на 2-5 м/с выше, чем в oбычных услoвиях.
Атмoсфернoе давление в разных тoчках местнoсти мoжет значительнo oтличаться oт давления на метеoстанции, в зависимoсти oт услoвий рельефа (при пoдъёме на 10 м давление пoнижается примернo на 1 мм рт.ст.).